Location: Cluj-Napoca
(46.7712°N, 23.6236°E)
Time: 18:10:17
(UTC+02:00)

TIGRISAT - Visible Passes

Search period start: 03 December 2021 00:00
Search period end: 13 December 2021 00:00
Orbit: 603 x 689 km, 97.7° (Epoch: 02 December)

Date Brightness Start Highest point End Pass type
(mag) Time Alt. Az. Time Alt. Az. Time Alt. Az.
03 Dec ? 05:44:31 10° SE 05:48:20 32° ENE 05:52:08 10° N visible
04 Dec ? 06:09:24 10° SSE 06:13:35 58° ENE 06:17:45 10° N visible
05 Dec ? 05:00:54 10° E 05:02:49 13° ENE 05:04:45 10° NNE visible
05 Dec ? 06:34:39 10° S 06:38:55 76° WSW 06:43:11 10° NNW visible
06 Dec ? 05:24:41 10° ESE 05:27:55 21° ENE 05:31:09 10° NNE visible
06 Dec ? 07:00:20 10° SSW 07:04:21 40° W 07:08:23 10° NNW visible
07 Dec ? 05:49:12 10° SE 05:53:05 36° ENE 05:56:59 10° N visible
07 Dec ? 19:21:39 11° S 19:21:39 11° S 19:21:50 10° S visible
08 Dec ? 06:14:09 10° SSE 06:18:21 67° ENE 06:22:35 10° N visible
08 Dec ? 19:47:12 11° SSW 19:47:12 11° SSW 19:47:17 10° SSW visible
09 Dec ? 05:05:16 10° E 05:07:33 14° ENE 05:09:50 10° NNE visible
09 Dec ? 06:39:30 10° S 06:43:43 67° WSW 06:47:57 10° NNW visible
10 Dec ? 05:29:15 10° ESE 05:32:39 24° ENE 05:36:03 10° NNE visible
10 Dec ? 07:05:15 10° SSW 07:09:09 35° W 07:13:05 10° NNW visible
10 Dec ? 19:00:36 12° SSE 19:00:36 12° SSE 19:00:58 10° SSE visible
11 Dec ? 05:53:52 10° SE 05:57:50 41° ENE 06:01:51 10° N visible
11 Dec ? 19:26:09 14° S 19:26:09 14° S 19:26:44 10° S visible
12 Dec ? 06:18:54 10° SSE 06:23:07 76° ENE 06:27:23 10° N visible
12 Dec ? 19:51:42 12° SSW 19:51:42 12° SSW 19:52:07 10° SSW visible
